| time (UTC) | temp F | wind direction | speed MPH | gust MPH | rain 1hr in | rain 24hr in | rain mn in | humidity % | barometer mb |
| 20260506153031 | 52 | 48 | 7.0 | 11.0 | 0.05 | 0.05 | 0.05 | 89 | 1014.8 |
| 20260506152528 | 52 | 50 | 6.0 | 15.0 | 0.05 | 0.05 | 0.05 | 89 | 1014.9 |
| 20260506152025 | 52 | 28 | 8.0 | 13.0 | 0.04 | 0.04 | 0.04 | 89 | 1014.5 |
| 20260506151522 | 52 | 48 | 10.0 | 15.0 | 0.03 | 0.03 | 0.03 | 88 | 1015.0 |
| 20260506151018 | 53 | 46 | 5.0 | 12.0 | 0.02 | 0.02 | 0.02 | 87 | 1016.7 |
| 20260506150515 | 53 | 23 | 2.0 | 4.0 | 0.01 | 0.01 | 0.01 | 86 | 1016.8 |
| 20260506150052 | 53 | 34 | 5.0 | 11.0 | 0.01 | 0.01 | 0.01 | 85 | 1016.5 |
| 20260506145528 | 53 | 30 | 5.0 | 8.0 | 0.00 | 0.00 | 0.00 | 84 | 1016.2 |
| 20260506145025 | 53 | 32 | 4.0 | 8.0 | 0.00 | 0.00 | 0.00 | 85 | 1016.1 |
| 20260506144522 | 53 | 39 | 4.0 | 8.0 | 0.00 | 0.00 | 0.00 | 85 | 1016.0 |
| 20260506144019 | 53 | 28 | 5.0 | 9.0 | 0.00 | 0.00 | 0.00 | 86 | 1015.4 |
| 20260506143516 | 53 | 43 | 8.0 | 14.0 | 0.00 | 0.00 | 0.00 | 85 | 1014.6 |
| 20260506143033 | 53 | 43 | 7.0 | 14.0 | 0.00 | 0.00 | 0.00 | 84 | 1014.2 |
| 20260506142530 | 53 | 42 | 7.0 | 11.0 | 0.00 | 0.00 | 0.00 | 83 | 1014.4 |
| 20260506142026 | 53 | 39 | 9.0 | 17.0 | 0.00 | 0.00 | 0.00 | 82 | 1014.3 |
| 20260506141523 | 53 | 36 | 7.0 | 14.0 | 0.00 | 0.00 | 0.00 | 82 | 1015.4 |
| 20260506141020 | 53 | 31 | 7.0 | 13.0 | 0.00 | 0.00 | 0.00 | 82 | 1015.4 |
| 20260506140517 | 53 | 23 | 6.0 | 12.0 | 0.00 | 0.00 | 0.00 | 82 | 1015.3 |
| 20260506140054 | 53 | 34 | 6.0 | 10.0 | 0.00 | 0.00 | 0.00 | 82 | 1015.1 |
| 20260506135531 | 53 | 32 | 5.0 | 12.0 | 0.00 | 0.00 | 0.00 | 83 | 1014.9 |
| 20260506135048 | 53 | 35 | 5.0 | 9.0 | 0.00 | 0.00 | 0.00 | 83 | 1014.8 |
| 20260506134545 | 53 | 39 | 5.0 | 11.0 | 0.00 | 0.00 | 0.00 | 83 | 1014.4 |
| 20260506134022 | 52 | 37 | 6.0 | 11.0 | 0.00 | 0.00 | 0.00 | 84 | 1014.3 |
| 20260506133538 | 52 | 50 | 8.0 | 13.0 | 0.00 | 0.00 | 0.00 | 84 | 1014.3 |
| 20260506133036 | 52 | 49 | 6.0 | 11.0 | 0.00 | 0.00 | 0.00 | 84 | 1013.8 |
| 20260506132532 | 52 | 46 | 9.0 | 13.0 | 0.00 | 0.00 | 0.00 | 84 | 1014.1 |
| 20260506132028 | 52 | 47 | 10.0 | 17.0 | 0.00 | 0.00 | 0.00 | 84 | 1014.1 |
| 20260506131526 | 52 | 48 | 7.0 | 14.0 | 0.00 | 0.00 | 0.00 | 83 | 1014.1 |
| 20260506131022 | 52 | 47 | 9.0 | 14.0 | 0.00 | 0.00 | 0.00 | 83 | 1014.0 |
| 20260506130519 | 52 | 42 | 7.0 | 14.0 | 0.00 | 0.00 | 0.00 | 83 | 1013.7 |
| 20260506130017 | 52 | 47 | 9.0 | 15.0 | 0.00 | 0.00 | 0.00 | 83 | 1013.8 |
| 20260506125534 | 52 | 41 | 8.0 | 14.0 | 0.00 | 0.00 | 0.00 | 83 | 1013.7 |
| 20260506125050 | 52 | 44 | 9.0 | 17.0 | 0.00 | 0.00 | 0.00 | 83 | 1013.4 |
| 20260506124527 | 52 | 44 | 9.0 | 16.0 | 0.00 | 0.00 | 0.00 | 83 | 1013.6 |
| 20260506124024 | 52 | 45 | 10.0 | 16.0 | 0.00 | 0.00 | 0.00 | 83 | 1013.6 |
| 20260506123521 | 52 | 49 | 9.0 | 17.0 | 0.00 | 0.00 | 0.00 | 82 | 1013.6 |
| 20260506123038 | 52 | 47 | 9.0 | 15.0 | 0.00 | 0.00 | 0.00 | 82 | 1013.6 |
| 20260506122535 | 52 | 50 | 9.0 | 17.0 | 0.00 | 0.00 | 0.00 | 82 | 1013.4 |
| 20260506122032 | 53 | 43 | 10.0 | 18.0 | 0.00 | 0.00 | 0.00 | 82 | 1013.4 |
| 20260506121528 | 53 | 32 | 8.0 | 16.0 | 0.00 | 0.00 | 0.00 | 81 | 1013.3 |
| 20260506121025 | 53 | 49 | 10.0 | 18.0 | 0.00 | 0.00 | 0.00 | 81 | 1013.4 |
| 20260506120522 | 53 | 43 | 8.0 | 15.0 | 0.00 | 0.00 | 0.00 | 80 | 1013.4 |
| 20260506120019 | 54 | 36 | 8.0 | 18.0 | 0.00 | 0.00 | 0.00 | 79 | 1013.2 |
| 20260506115516 | 54 | 38 | 10.0 | 18.0 | 0.00 | 0.00 | 0.00 | 77 | 1013.2 |
| 20260506115033 | 54 | 48 | 9.0 | 17.0 | 0.00 | 0.00 | 0.00 | 77 | 1013.1 |
| 20260506114550 | 54 | 53 | 9.0 | 17.0 | 0.00 | 0.00 | 0.00 | 77 | 1013.1 |
| 20260506114026 | 54 | 40 | 9.0 | 15.0 | 0.00 | 0.00 | 0.00 | 76 | 1013.0 |
| 20260506113604 | 54 | 34 | 7.0 | 14.0 | 0.00 | 0.00 | 0.00 | 75 | 1012.8 |
| 20260506113040 | 54 | 45 | 8.0 | 15.0 | 0.00 | 0.00 | 0.00 | 75 | 1012.8 |
| 20260506112537 | 54 | 49 | 9.0 | 16.0 | 0.00 | 0.00 | 0.00 | 75 | 1012.7 |
| 20260506112034 | 55 | 45 | 8.0 | 16.0 | 0.00 | 0.00 | 0.00 | 74 | 1012.5 |
| 20260506111531 | 55 | 35 | 8.0 | 16.0 | 0.00 | 0.00 | 0.00 | 74 | 1012.3 |
| 20260506111048 | 55 | 24 | 5.0 | 16.0 | 0.00 | 0.00 | 0.00 | 74 | 1012.2 |
| 20260506110524 | 55 | 49 | 8.0 | 17.0 | 0.00 | 0.00 | 0.00 | 74 | 1012.2 |
| 20260506110022 | 55 | 28 | 5.0 | 9.0 | 0.00 | 0.00 | 0.00 | 74 | 1012.0 |
| 20260506105519 | 55 | 38 | 7.0 | 14.0 | 0.00 | 0.00 | 0.00 | 74 | 1012.1 |
| 20260506105035 | 55 | 34 | 8.0 | 15.0 | 0.00 | 0.00 | 0.00 | 74 | 1012.0 |
| 20260506104532 | 56 | 42 | 8.0 | 16.0 | 0.00 | 0.00 | 0.00 | 74 | 1011.9 |
| 20260506104049 | 56 | 41 | 9.0 | 16.0 | 0.00 | 0.00 | 0.00 | 74 | 1011.8 |
| 20260506103525 | 56 | 35 | 8.0 | 14.0 | 0.00 | 0.00 | 0.00 | 74 | 1012.0 |
| 20260506103022 | 56 | 33 | 7.0 | 15.0 | 0.00 | 0.00 | 0.00 | 74 | 1011.8 |
| 20260506102519 | 56 | 34 | 7.0 | 13.0 | 0.00 | 0.00 | 0.00 | 74 | 1011.7 |
| 20260506102016 | 56 | 33 | 6.0 | 10.0 | 0.00 | 0.00 | 0.00 | 74 | 1011.5 |
| 20260506101533 | 56 | 41 | 7.0 | 14.0 | 0.00 | 0.00 | 0.00 | 74 | 1011.4 |
| 20260506101029 | 56 | 45 | 8.0 | 14.0 | 0.00 | 0.00 | 0.00 | 74 | 1011.4 |
| 20260506100527 | 56 | 49 | 8.0 | 14.0 | 0.00 | 0.00 | 0.00 | 73 | 1011.3 |
| 20260506100023 | 57 | 26 | 7.0 | 15.0 | 0.00 | 0.00 | 0.00 | 74 | 1011.1 |
| 20260506095520 | 57 | 42 | 5.0 | 9.0 | 0.00 | 0.00 | 0.00 | 75 | 1011.0 |
| 20260506095016 | 57 | 26 | 7.0 | 12.0 | 0.00 | 0.00 | 0.00 | 75 | 1011.0 |
| 20260506094534 | 57 | 48 | 7.0 | 12.0 | 0.00 | 0.00 | 0.00 | 75 | 1011.1 |
| 20260506094030 | 57 | 43 | 8.0 | 13.0 | 0.00 | 0.00 | 0.00 | 75 | 1010.9 |
| 20260506093526 | 57 | 47 | 7.0 | 13.0 | 0.00 | 0.00 | 0.00 | 74 | 1011.0 |
| 20260506093023 | 57 | 47 | 6.0 | 10.0 | 0.00 | 0.00 | 0.00 | 74 | 1011.0 |
| 20260506092541 | 57 | 42 | 7.0 | 14.0 | 0.00 | 0.00 | 0.00 | 74 | 1010.8 |
| 20260506092017 | 57 | 41 | 7.0 | 14.0 | 0.00 | 0.00 | 0.00 | 74 | 1010.8 |
| 20260506091534 | 57 | 42 | 8.0 | 13.0 | 0.00 | 0.00 | 0.00 | 74 | 1010.8 |
| 20260506091031 | 57 | 46 | 8.0 | 13.0 | 0.00 | 0.00 | 0.00 | 74 | 1010.8 |
| 20260506090527 | 57 | 44 | 6.0 | 11.0 | 0.00 | 0.00 | 0.00 | 75 | 1010.7 |
| 20260506090045 | 57 | 42 | 7.0 | 12.0 | 0.00 | 0.00 | 0.00 | 75 | 1010.8 |
| 20260506085521 | 57 | 48 | 7.0 | 11.0 | 0.00 | 0.00 | 0.00 | 75 | 1010.7 |
| 20260506085018 | 58 | 40 | 7.0 | 16.0 | 0.00 | 0.00 | 0.00 | 76 | 1010.7 |
| 20260506084555 | 58 | 39 | 6.0 | 12.0 | 0.00 | 0.00 | 0.00 | 76 | 1010.6 |
| 20260506084052 | 58 | 42 | 5.0 | 11.0 | 0.00 | 0.00 | 0.00 | 76 | 1010.4 |
| 20260506083529 | 58 | 44 | 7.0 | 13.0 | 0.00 | 0.00 | 0.00 | 76 | 1010.3 |
| 20260506083045 | 58 | 39 | 6.0 | 11.0 | 0.00 | 0.00 | 0.00 | 76 | 1010.3 |
| 20260506082522 | 58 | 42 | 7.0 | 11.0 | 0.00 | 0.00 | 0.00 | 76 | 1010.3 |
| 20260506082039 | 58 | 39 | 5.0 | 10.0 | 0.00 | 0.00 | 0.00 | 76 | 1010.4 |
| 20260506081536 | 58 | 44 | 5.0 | 11.0 | 0.00 | 0.00 | 0.00 | 76 | 1010.5 |
| 20260506081052 | 58 | 46 | 7.0 | 12.0 | 0.00 | 0.00 | 0.00 | 76 | 1010.4 |
| 20260506080529 | 58 | 51 | 7.0 | 13.0 | 0.00 | 0.00 | 0.00 | 75 | 1010.4 |
| 20260506073027 | 59 | 56 | 6.0 | 11.0 | 0.00 | 0.00 | 0.00 | 76 | 1010.0 |
| 20260506072524 | 59 | 46 | 6.0 | 10.0 | 0.00 | 0.00 | 0.00 | 76 | 1009.8 |
| 20260506072021 | 59 | 54 | 4.0 | 7.0 | 0.00 | 0.00 | 0.00 | 76 | 1009.8 |
| 20260506071518 | 58 | 50 | 7.0 | 11.0 | 0.00 | 0.00 | 0.00 | 76 | 1010.0 |
| 20260506071035 | 58 | 44 | 7.0 | 11.0 | 0.00 | 0.00 | 0.00 | 76 | 1009.9 |
| 20260506070531 | 58 | 51 | 8.0 | 14.0 | 0.00 | 0.00 | 0.00 | 76 | 1010.1 |
| 20260506062022 | 59 | 43 | 7.0 | 12.0 | 0.00 | 0.00 | 0.00 | 76 | 1010.1 |
| 20260506061519 | 60 | 51 | 8.0 | 13.0 | 0.00 | 0.00 | 0.00 | 77 | 1009.9 |
| 20260506061037 | 60 | 51 | 7.0 | 12.0 | 0.00 | 0.00 | 0.00 | 77 | 1010.0 |
| 20260506060534 | 60 | 45 | 7.0 | 12.0 | 0.00 | 0.00 | 0.00 | 78 | 1010.2 |
| 20260506051021 | 61 | 29 | 6.0 | 14.0 | 0.00 | 0.00 | 0.00 | 78 | 1010.4 |
| 20260506050517 | 61 | 42 | 7.0 | 13.0 | 0.00 | 0.00 | 0.00 | 78 | 1010.2 |
| 20260506045027 | 61 | 45 | 8.0 | 13.0 | 0.00 | 0.00 | 0.00 | 78 | 1010.0 |
| 20260506044525 | 61 | 42 | 9.0 | 16.0 | 0.00 | 0.00 | 0.00 | 78 | 1009.9 |
| 20260506044021 | 61 | 46 | 9.0 | 17.0 | 0.00 | 0.00 | 0.00 | 78 | 1009.9 |
| 20260506043518 | 61 | 47 | 8.0 | 15.0 | 0.00 | 0.00 | 0.00 | 77 | 1010.1 |
| 20260506043035 | 62 | 34 | 8.0 | 16.0 | 0.00 | 0.00 | 0.00 | 77 | 1009.9 |
| 20260506042532 | 62 | 23 | 6.0 | 11.0 | 0.00 | 0.00 | 0.00 | 77 | 1010.0 |
| 20260506042029 | 62 | 36 | 7.0 | 15.0 | 0.00 | 0.00 | 0.00 | 77 | 1009.9 |
| 20260506041526 | 62 | 42 | 7.0 | 16.0 | 0.00 | 0.00 | 0.00 | 77 | 1010.0 |
| 20260506041042 | 62 | 33 | 7.0 | 16.0 | 0.00 | 0.00 | 0.00 | 77 | 1010.0 |
| 20260506040539 | 63 | 25 | 7.0 | 16.0 | 0.00 | 0.00 | 0.00 | 76 | 1009.9 |
| 20260506040016 | 63 | 46 | 8.0 | 17.0 | 0.00 | 0.00 | 0.00 | 76 | 1009.8 |
| 20260506035533 | 63 | 36 | 8.0 | 16.0 | 0.00 | 0.00 | 0.00 | 76 | 1009.8 |
| 20260506035029 | 64 | 38 | 7.0 | 16.0 | 0.00 | 0.00 | 0.00 | 76 | 1009.7 |
| 20260506034526 | 64 | 40 | 6.0 | 14.0 | 0.00 | 0.00 | 0.00 | 76 | 1009.5 |
| 20260506034024 | 64 | 19 | 5.0 | 10.0 | 0.00 | 0.00 | 0.00 | 75 | 1009.4 |
| 20260506033521 | 64 | 22 | 6.0 | 13.0 | 0.00 | 0.00 | 0.00 | 75 | 1009.2 |
| 20260506033019 | 64 | 40 | 7.0 | 12.0 | 0.00 | 0.00 | 0.00 | 75 | 1009.0 |
| 20260506032516 | 64 | 43 | 9.0 | 15.0 | 0.00 | 0.00 | 0.00 | 75 | 1008.8 |
| 20260506032033 | 65 | 40 | 9.0 | 16.0 | 0.00 | 0.00 | 0.00 | 75 | 1009.0 |
| 20260506031550 | 65 | 41 | 10.0 | 16.0 | 0.00 | 0.00 | 0.00 | 75 | 1008.9 |
| 20260506031046 | 65 | 39 | 8.0 | 15.0 | 0.00 | 0.00 | 0.00 | 75 | 1008.8 |
| 20260506030523 | 66 | 36 | 8.0 | 14.0 | 0.00 | 0.00 | 0.00 | 75 | 1008.8 |
| 20260506030020 | 66 | 45 | 9.0 | 17.0 | 0.00 | 0.00 | 0.00 | 74 | 1008.7 |
| 20260506025517 | 67 | 40 | 7.0 | 13.0 | 0.00 | 0.00 | 0.00 | 73 | 1008.6 |
| 20260506025034 | 67 | 25 | 6.0 | 13.0 | 0.00 | 0.00 | 0.00 | 73 | 1008.4 |
| 20260506024550 | 67 | 37 | 6.0 | 13.0 | 0.00 | 0.00 | 0.00 | 72 | 1008.4 |
| 20260506024028 | 67 | 41 | 7.0 | 14.0 | 0.00 | 0.00 | 0.00 | 72 | 1008.3 |
| 20260506023525 | 67 | 30 | 5.0 | 11.0 | 0.00 | 0.00 | 0.00 | 71 | 1008.2 |
| 20260506023021 | 68 | 22 | 5.0 | 10.0 | 0.00 | 0.00 | 0.00 | 71 | 1008.1 |
| 20260506022538 | 68 | 31 | 4.0 | 9.0 | 0.00 | 0.00 | 0.00 | 71 | 1008.1 |
| 20260506022055 | 68 | 28 | 7.0 | 11.0 | 0.00 | 0.00 | 0.00 | 71 | 1008.0 |
| 20260506021531 | 68 | 13 | 5.0 | 9.0 | 0.00 | 0.00 | 0.00 | 70 | 1007.8 |
| 20260506021028 | 68 | 26 | 5.0 | 9.0 | 0.00 | 0.00 | 0.00 | 70 | 1007.6 |
| 20260506020525 | 68 | 42 | 5.0 | 14.0 | 0.00 | 0.00 | 0.00 | 70 | 1007.6 |
| 20260506020022 | 68 | 33 | 6.0 | 12.0 | 0.00 | 0.00 | 0.00 | 70 | 1007.8 |
| 20260506015519 | 68 | 40 | 9.0 | 15.0 | 0.00 | 0.00 | 0.00 | 70 | 1007.5 |
| 20260506015016 | 68 | 41 | 7.0 | 14.0 | 0.00 | 0.00 | 0.00 | 71 | 1007.3 |
| 20260506014532 | 69 | 44 | 8.0 | 13.0 | 0.00 | 0.00 | 0.00 | 70 | 1007.0 |
| 20260506014029 | 69 | 42 | 7.0 | 15.0 | 0.00 | 0.00 | 0.00 | 70 | 1006.9 |
| 20260506013526 | 69 | 34 | 5.0 | 11.0 | 0.00 | 0.00 | 0.00 | 69 | 1007.1 |
| 20260506013023 | 69 | 36 | 6.0 | 14.0 | 0.00 | 0.00 | 0.00 | 69 | 1006.9 |
| 20260506012520 | 69 | 47 | 6.0 | 12.0 | 0.00 | 0.00 | 0.00 | 69 | 1006.8 |
| 20260506012017 | 70 | 35 | 7.0 | 15.0 | 0.00 | 0.00 | 0.00 | 69 | 1006.7 |
| 20260506011534 | 70 | 44 | 7.0 | 11.0 | 0.00 | 0.00 | 0.00 | 69 | 1006.6 |
| 20260506011031 | 70 | 42 | 6.0 | 12.0 | 0.00 | 0.00 | 0.00 | 69 | 1006.5 |
| 20260506010528 | 71 | 44 | 8.0 | 12.0 | 0.00 | 0.00 | 0.00 | 68 | 1006.3 |
| 20260506010026 | 71 | 47 | 8.0 | 14.0 | 0.00 | 0.00 | 0.00 | 68 | 1006.3 |
| 20260506005523 | 72 | 43 | 7.0 | 12.0 | 0.00 | 0.00 | 0.00 | 68 | 1006.2 |
| 20260506005020 | 72 | 40 | 5.0 | 13.0 | 0.00 | 0.00 | 0.00 | 68 | 1006.2 |
| 20260506004523 | 72 | 19 | 4.0 | 10.0 | 0.00 | 0.00 | 0.00 | 67 | 1006.0 |
| 20260506004034 | 72 | 31 | 6.0 | 11.0 | 0.00 | 0.00 | 0.00 | 67 | 1006.0 |
| 20260506003530 | 73 | 44 | 7.0 | 13.0 | 0.00 | 0.00 | 0.00 | 67 | 1005.6 |
| 20260506003027 | 74 | 38 | 5.0 | 10.0 | 0.00 | 0.00 | 0.00 | 66 | 1005.5 |
| 20260506002524 | 74 | 31 | 6.0 | 13.0 | 0.00 | 0.00 | 0.00 | 66 | 1005.5 |
| 20260506002041 | 74 | 33 | 7.0 | 14.0 | 0.00 | 0.00 | 0.00 | 65 | 1005.7 |
| 20260506001517 | 74 | 26 | 4.0 | 8.0 | 0.00 | 0.00 | 0.00 | 65 | 1005.6 |
| 20260506001034 | 75 | 21 | 6.0 | 12.0 | 0.00 | 0.00 | 0.00 | 64 | 1005.6 |
| 20260506000531 | 75 | 35 | 7.0 | 13.0 | 0.00 | 0.00 | 0.00 | 63 | 1005.4 |
| 20260506000028 | 76 | 38 | 5.0 | 12.0 | 0.00 | 0.00 | 0.00 | 64 | 1005.5 |
| 20260505235525 | 76 | 32 | 5.0 | 10.0 | 0.00 | 0.00 | 0.00 | 63 | 1005.4 |
| 20260505235022 | 77 | 16 | 5.0 | 12.0 | 0.00 | 0.00 | 0.00 | 62 | 1005.4 |
| 20260505234517 | 78 | 27 | 5.0 | 12.0 | 0.00 | 0.00 | 0.00 | 61 | 1005.4 |
| 20260505234035 | 78 | 14 | 6.0 | 13.0 | 0.00 | 0.00 | 0.00 | 60 | 1005.3 |
| 20260505233552 | 78 | 29 | 6.0 | 10.0 | 0.00 | 0.00 | 0.00 | 60 | 1005.3 |
| 20260505233028 | 79 | 29 | 4.0 | 11.0 | 0.00 | 0.00 | 0.00 | 60 | 1005.1 |
| 20260505232606 | 79 | 360 | 4.0 | 11.0 | 0.00 | 0.00 | 0.00 | 58 | 1005.3 |
| 20260505232043 | 79 | 10 | 5.0 | 11.0 | 0.00 | 0.00 | 0.00 | 58 | 1005.3 |
| 20260505231519 | 80 | 4 | 6.0 | 10.0 | 0.00 | 0.00 | 0.00 | 57 | 1005.3 |
| 20260505231016 | 81 | 18 | 4.0 | 12.0 | 0.00 | 0.00 | 0.00 | 57 | 1005.0 |
| 20260505230533 | 81 | 6 | 5.0 | 9.0 | 0.00 | 0.00 | 0.00 | 56 | 1004.9 |
| 20260505230030 | 82 | 356 | 5.0 | 9.0 | 0.00 | 0.00 | 0.00 | 55 | 1005.1 |
| 20260505225547 | 82 | 2 | 5.0 | 11.0 | 0.00 | 0.00 | 0.00 | 55 | 1005.0 |
| 20260505225024 | 83 | 354 | 5.0 | 11.0 | 0.00 | 0.00 | 0.00 | 55 | 1004.8 |
| 20260505224540 | 83 | 340 | 4.0 | 8.0 | 0.00 | 0.00 | 0.00 | 55 | 1004.6 |
| 20260505224017 | 84 | 333 | 4.0 | 7.0 | 0.00 | 0.00 | 0.00 | 54 | 1004.6 |
| 20260505223554 | 85 | 336 | 5.0 | 12.0 | 0.00 | 0.00 | 0.00 | 54 | 1004.5 |
| 20260505223031 | 85 | 343 | 4.0 | 9.0 | 0.00 | 0.00 | 0.00 | 54 | 1004.6 |
| 20260505222528 | 85 | 7 | 5.0 | 9.0 | 0.00 | 0.00 | 0.00 | 53 | 1004.6 |
| 20260505222024 | 85 | 357 | 4.0 | 7.0 | 0.00 | 0.00 | 0.00 | 52 | 1004.3 |
| 20260505221521 | 86 | 348 | 4.0 | 8.0 | 0.00 | 0.00 | 0.00 | 49 | 1004.3 |
| 20260505221018 | 87 | 349 | 4.0 | 7.0 | 0.00 | 0.00 | 0.00 | 47 | 1004.4 |
| 20260505220515 | 87 | 355 | 4.0 | 8.0 | 0.00 | 0.00 | 0.00 | 45 | 1004.2 |
| 20260505220052 | 87 | 357 | 4.0 | 7.0 | 0.00 | 0.00 | 0.00 | 45 | 1004.1 |
| 20260505215529 | 87 | 350 | 4.0 | 9.0 | 0.00 | 0.00 | 0.00 | 45 | 1004.1 |
| 20260505215026 | 88 | 8 | 3.0 | 6.0 | 0.00 | 0.00 | 0.00 | 45 | 1004.2 |
| 20260505214543 | 88 | 346 | 4.0 | 8.0 | 0.00 | 0.00 | 0.00 | 44 | 1004.2 |
| 20260505214019 | 88 | 343 | 3.0 | 6.0 | 0.00 | 0.00 | 0.00 | 45 | 1004.4 |
| 20260505213516 | 88 | 342 | 4.0 | 8.0 | 0.00 | 0.00 | 0.00 | 45 | 1004.3 |
| 20260505213032 | 89 | 354 | 3.0 | 7.0 | 0.00 | 0.00 | 0.00 | 45 | 1004.1 |
| 20260505212530 | 89 | 8 | 4.0 | 9.0 | 0.00 | 0.00 | 0.00 | 45 | 1004.1 |
| 20260505212047 | 91 | 333 | 4.0 | 9.0 | 0.00 | 0.00 | 0.00 | 44 | 1004.1 |
| 20260505211524 | 92 | 250 | 6.0 | 14.0 | 0.00 | 0.00 | 0.00 | 45 | 1004.1 |
| 20260505211020 | 92 | 228 | 7.0 | 12.0 | 0.00 | 0.00 | 0.00 | 44 | 1004.2 |
| 20260505210517 | 93 | 243 | 5.0 | 13.0 | 0.00 | 0.00 | 0.00 | 44 | 1004.4 |
| 20260505210034 | 93 | 236 | 6.0 | 11.0 | 0.00 | 0.00 | 0.00 | 44 | 1004.2 |
| 20260505205530 | 93 | 250 | 4.0 | 9.0 | 0.00 | 0.00 | 0.00 | 44 | 1004.3 |
| 20260505205027 | 93 | 264 | 4.0 | 8.0 | 0.00 | 0.00 | 0.00 | 45 | 1004.4 |
| 20260505204524 | 92 | 221 | 6.0 | 12.0 | 0.00 | 0.00 | 0.00 | 45 | 1004.5 |
| 20260505204022 | 92 | 234 | 5.0 | 9.0 | 0.00 | 0.00 | 0.00 | 45 | 1004.6 |
| 20260505203519 | 92 | 241 | 4.0 | 10.0 | 0.00 | 0.00 | 0.00 | 45 | 1004.6 |
| 20260505203016 | 92 | 255 | 5.0 | 9.0 | 0.00 | 0.00 | 0.00 | 46 | 1004.6 |
| 20260505202552 | 92 | 225 | 7.0 | 13.0 | 0.00 | 0.00 | 0.00 | 45 | 1004.6 |
| 20260505202029 | 92 | 232 | 6.0 | 12.0 | 0.00 | 0.00 | 0.00 | 47 | 1004.7 |
| 20260505201526 | 91 | 242 | 7.0 | 17.0 | 0.00 | 0.00 | 0.00 | 47 | 1004.9 |
| 20260505201103 | 92 | 254 | 6.0 | 14.0 | 0.00 | 0.00 | 0.00 | 47 | 1005.0 |
| 20260505200540 | 91 | 254 | 6.0 | 11.0 | 0.00 | 0.00 | 0.00 | 47 | 1005.0 |
| 20260505200016 | 91 | 259 | 5.0 | 11.0 | 0.00 | 0.00 | 0.00 | 47 | 1004.9 |
| 20260505195533 | 91 | 247 | 7.0 | 13.0 | 0.00 | 0.00 | 0.00 | 47 | 1005.0 |
| 20260505195030 | 90 | 262 | 5.0 | 11.0 | 0.00 | 0.00 | 0.00 | 48 | 1005.0 |
| 20260505194527 | 90 | 256 | 6.0 | 15.0 | 0.00 | 0.00 | 0.00 | 50 | 1004.9 |
| 20260505194024 | 90 | 235 | 6.0 | 16.0 | 0.00 | 0.00 | 0.00 | 52 | 1004.9 |
| 20260505193541 | 90 | 239 | 6.0 | 13.0 | 0.00 | 0.00 | 0.00 | 52 | 1004.9 |
| 20260505193017 | 89 | 219 | 7.0 | 14.0 | 0.00 | 0.00 | 0.00 | 53 | 1004.9 |
| 20260505192534 | 88 | 231 | 8.0 | 15.0 | 0.00 | 0.00 | 0.00 | 54 | 1005.0 |
| 20260505192031 | 88 | 225 | 7.0 | 14.0 | 0.00 | 0.00 | 0.00 | 53 | 1004.9 |
| 20260505191548 | 88 | 226 | 8.0 | 15.0 | 0.00 | 0.00 | 0.00 | 54 | 1004.9 |
| 20260505191045 | 87 | 221 | 8.0 | 16.0 | 0.00 | 0.00 | 0.00 | 54 | 1004.9 |
| 20260505190522 | 88 | 226 | 9.0 | 18.0 | 0.00 | 0.00 | 0.00 | 54 | 1004.9 |
| 20260505190038 | 87 | 218 | 7.0 | 18.0 | 0.00 | 0.00 | 0.00 | 55 | 1004.8 |
| 20260505185535 | 87 | 224 | 9.0 | 18.0 | 0.00 | 0.00 | 0.00 | 56 | 1004.9 |
| 20260505185052 | 86 | 228 | 8.0 | 19.0 | 0.00 | 0.00 | 0.00 | 58 | 1004.9 |
| 20260505184529 | 86 | 220 | 8.0 | 15.0 | 0.00 | 0.00 | 0.00 | 58 | 1005.0 |
| 20260505184025 | 86 | 222 | 9.0 | 19.0 | 0.00 | 0.00 | 0.00 | 58 | 1004.9 |
| 20260505183522 | 86 | 213 | 9.0 | 20.0 | 0.00 | 0.00 | 0.00 | 57 | 1005.2 |
| 20260505183019 | 86 | 208 | 5.0 | 11.0 | 0.00 | 0.00 | 0.00 | 58 | 1005.1 |
| 20260505182516 | 85 | 221 | 8.0 | 15.0 | 0.00 | 0.00 | 0.00 | 59 | 1005.1 |
| 20260505182032 | 85 | 230 | 8.0 | 15.0 | 0.00 | 0.00 | 0.00 | 59 | 1005.0 |
| 20260505181529 | 85 | 212 | 9.0 | 19.0 | 0.00 | 0.00 | 0.00 | 59 | 1005.0 |
| 20260505181026 | 86 | 218 | 7.0 | 13.0 | 0.00 | 0.00 | 0.00 | 60 | 1005.1 |
| 20260505180522 | 85 | 217 | 6.0 | 13.0 | 0.00 | 0.00 | 0.00 | 60 | 1005.2 |
| 20260505180019 | 85 | 219 | 7.0 | 13.0 | 0.00 | 0.00 | 0.00 | 61 | 1005.2 |
| 20260505175516 | 85 | 219 | 10.0 | 19.0 | 0.00 | 0.00 | 0.00 | 61 | 1005.1 |
| 20260505175033 | 85 | 223 | 6.0 | 13.0 | 0.00 | 0.00 | 0.00 | 61 | 1005.1 |
| 20260505174530 | 85 | 214 | 5.0 | 13.0 | 0.00 | 0.00 | 0.00 | 61 | 1005.0 |
| 20260505174047 | 84 | 218 | 6.0 | 14.0 | 0.00 | 0.00 | 0.00 | 62 | 1005.1 |
| 20260505173545 | 85 | 221 | 9.0 | 17.0 | 0.00 | 0.00 | 0.00 | 62 | 1005.1 |
| 20260505173041 | 84 | 218 | 9.0 | 19.0 | 0.00 | 0.00 | 0.00 | 62 | 1005.1 |
| 20260505172516 | 84 | 221 | 6.0 | 13.0 | 0.00 | 0.00 | 0.00 | 62 | 1005.0 |
| 20260505172032 | 84 | 224 | 6.0 | 18.0 | 0.00 | 0.00 | 0.00 | 62 | 1005.1 |
| 20260505171528 | 84 | 213 | 7.0 | 16.0 | 0.00 | 0.00 | 0.00 | 63 | 1005.1 |
| 20260505171046 | 84 | 216 | 6.0 | 19.0 | 0.00 | 0.00 | 0.00 | 62 | 1005.2 |
| 20260505170522 | 84 | 217 | 8.0 | 18.0 | 0.00 | 0.00 | 0.00 | 63 | 1005.0 |
| 20260505170019 | 84 | 216 | 7.0 | 18.0 | 0.00 | 0.00 | 0.00 | 62 | 1005.0 |
| 20260505165516 | 83 | 215 | 6.0 | 13.0 | 0.00 | 0.00 | 0.00 | 63 | 1005.0 |
| 20260505165033 | 83 | 218 | 9.0 | 21.0 | 0.00 | 0.00 | 0.00 | 64 | 1005.1 |
| 20260505164530 | 83 | 215 | 8.0 | 19.0 | 0.00 | 0.00 | 0.00 | 64 | 1005.1 |
| 20260505164026 | 82 | 215 | 8.0 | 15.0 | 0.00 | 0.00 | 0.00 | 66 | 1005.1 |
| 20260505163523 | 82 | 216 | 6.0 | 13.0 | 0.00 | 0.00 | 0.00 | 66 | 1005.0 |
| 20260505163040 | 81 | 215 | 5.0 | 13.0 | 0.00 | 0.00 | 0.00 | 67 | 1005.0 |
| 20260505162517 | 80 | 216 | 7.0 | 17.0 | 0.00 | 0.00 | 0.00 | 68 | 1005.0 |
| 20260505162033 | 81 | 222 | 8.0 | 20.0 | 0.00 | 0.00 | 0.00 | 67 | 1005.0 |
| 20260505161531 | 81 | 217 | 9.0 | 18.0 | 0.00 | 0.00 | 0.00 | 67 | 1005.0 |
| 20260505161028 | 81 | 217 | 6.0 | 16.0 | 0.00 | 0.00 | 0.00 | 67 | 1004.8 |
| 20260505160525 | 80 | 223 | 6.0 | 13.0 | 0.00 | 0.00 | 0.00 | 68 | 1004.9 |